Location: Newark
(50.1751°N, 5.6239°W)
Time: 23:19:08
(UTC+00:00)

ISS - Pass Details

Date: 29 September 2021
Orbit: 417 x 423 km, 51.6° (Epoch: 18 October)

Event Time Altitude Azimuth Distance (km) Brightness Sun altitude
Rises 19:47:10 0° 286° (WNW) 2,367 1.9 -17.0°
Reaches altitude 10° 19:49:16 10° 284° (WNW) 1,502 0.4 -17.4°
Maximum altitude 19:52:37 70° 202° (SSW) 450 -3.7 -17.9°
Enters shadow 19:53:12 55° 142° (SE) 512 -3.7 -18.0°
